Theta_e
350 349 346 341 341 344 343 342 344 344 344 343 343 344 345 346 345 344 344 344 344 348 347 344 344 345 345 346 345 345 345 346 345 345 344 345 345 344 345 346 346 345 344 345 345 346 345 345 345 346 347 348 347 346 351 345 343 340 340 338 339 339
347 349 350 346 342 339 344 345 343 348 347 346 343 344 348 351 346 352 345 349 351 343 342 342 341 343 344 347 348 346 346 346 345 345 344 344 343 343 345 345 346 346 345 344 343 342 343 346 345 345 347 349 345 346 351 347 344 341 339 340 340 342
347 348 350 350 349 349 345 344 347 344 344 340 343 349 347 349 349 347 349 349 348 350 348 346 345 346 343 340 348 345 345 345 345 345 343 344 343 342 342 344 345 346 345 345 342 342 340 341 341 345 347 346 342 343 347 346 345 343 341 340 339 345
349 349 347 348 349 349 348 348 347 348 346 341 344 348 348 348 348 349 347 350 349 349 350 348 345 345 345 348 347 344 344 344 345 342 342 343 343 344 343 343 344 345 345 344 340 338 338 339 340 340 341 340 337 340 345 345 344 344 343 340 338 346
349 348 347 346 347 346 348 346 346 347 347 346 347 348 348 348 349 350 349 348 350 350 350 348 348 349 347 349 349 348 345 345 344 342 340 346 345 345 344 341 344 345 343 340 338 339 339 339 341 341 341 339 339 341 341 343 344 343 343 342 343 346
348 347 346 345 346 345 347 345 346 345 346 347 347 346 346 348 347 348 347 347 349 349 349 347 348 347 347 348 347 345 345 346 346 344 342 342 343 344 340 342 339 336 339 342 340 340 340 340 337 336 339 339 340 340 339 338 340 341 343 344 347 346
346 347 347 347 346 345 345 346 346 345 344 345 345 345 344 345 347 348 347 347 347 346 346 345 346 346 346 347 346 346 346 347 347 346 347 344 342 341 343 343 340 340 341 340 340 339 338 338 338 337 338 337 339 338 339 337 337 338 340 343 347 345
346 346 346 346 345 345 346 346 346 345 345 344 343 342 342 343 345 346 347 347 346 345 345 344 345 346 345 346 346 348 348 346 346 346 348 347 344 345 342 343 343 345 340 339 338 339 338 336 337 337 338 337 336 339 340 337 337 338 340 343 345 345
346 345 345 345 345 344 344 345 345 343 343 343 343 343 343 345 344 345 346 346 346 345 344 343 344 344 345 345 345 346 345 344 346 345 347 346 346 345 344 344 344 344 345 343 340 341 338 338 340 339 336 335 336 337 338 339 339 335 337 340 343 348
346 346 346 345 345 345 343 342 344 344 343 344 343 346 347 344 345 344 345 346 344 343 343 342 342 342 343 343 344 345 345 344 345 345 344 345 344 344 343 342 342 342 342 343 341 341 342 340 339 339 338 336 336 336 338 336 337 336 336 339 341 344
345 346 347 345 345 346 346 343 344 344 343 344 346 346 346 346 345 344 344 346 346 346 346 344 343 342 341 341 343 344 344 345 344 344 345 343 343 343 342 341 343 342 343 342 342 344 342 341 341 339 339 338 337 338 337 338 336 335 334 335 337 341
345 346 345 345 346 346 345 344 346 345 345 347 348 347 344 343 341 341 340 341 342 342 343 345 345 343 342 341 343 343 343 343 342 343 345 344 342 343 342 342 341 343 344 344 343 344 345 342 342 339 339 338 338 339 337 337 336 334 333 335 336 338
346 347 345 345 345 345 346 346 346 346 347 347 347 346 343 341 340 340 341 342 341 341 343 342 344 345 343 343 343 344 343 344 344 345 346 346 345 343 342 341 343 343 342 344 343 344 345 343 342 342 342 341 340 338 337 338 339 338 335 334 335 335
345 346 347 347 347 344 347 346 346 346 347 346 346 344 342 343 339 339 341 341 340 341 341 342 341 341 341 343 344 342 343 341 342 344 344 344 342 342 341 341 342 341 340 342 342 343 343 343 342 342 342 341 341 342 341 340 340 339 338 337 336 339
345 344 345 345 345 346 347 346 346 346 346 346 346 344 341 342 340 339 339 337 340 340 340 340 340 341 340 338 339 338 338 338 340 343 342 343 342 342 342 341 339 340 342 341 339 341 342 342 342 342 343 344 342 339 340 339 342 343 339 340 341 341
345 344 344 344 344 345 347 347 346 342 347 347 345 345 341 341 341 338 338 338 340 340 339 339 339 339 339 339 337 337 336 339 339 340 341 343 342 340 341 341 341 341 339 339 339 340 340 340 342 341 343 343 343 343 342 341 341 340 343 345 342 343
345 345 346 345 345 344 344 345 347 346 343 347 345 343 341 341 340 339 339 337 340 340 339 338 339 339 338 338 336 337 337 338 340 339 341 342 341 341 341 340 340 340 339 339 339 340 341 340 340 342 343 343 342 343 343 343 341 341 340 339 342 343
346 346 345 345 345 345 345 345 345 345 345 343 345 341 342 340 339 337 338 338 339 339 339 339 339 338 338 338 337 336 338 338 338 338 337 337 337 339 342 342 340 340 339 340 338 338 339 340 339 339 340 341 342 341 342 343 344 343 341 338 340 341
346 346 345 345 345 345 345 344 344 345 345 345 345 344 341 340 339 339 338 339 340 340 339 338 339 339 338 336 336 336 336 337 337 336 336 335 335 336 337 338 340 339 338 337 337 338 338 338 338 337 335 339 341 340 342 342 341 340 343 342 340 341
345 345 344 344 344 342 342 339 338 340 341 342 343 341 344 341 341 339 340 339 339 340 338 339 338 338 337 337 335 335 337 337 336 335 334 334 334 334 335 335 335 334 334 335 335 335 337 336 338 338 337 337 338 338 337 340 339 337 340 340 339 339
342 344 342 341 340 339 337 338 338 338 339 341 341 342 342 343 340 339 340 338 338 337 338 338 337 337 337 335 337 336 337 335 336 335 335 334 335 335 336 335 334 334 333 332 332 335 334 335 332 333 336 335 338 336 337 338 337 338 337 338 339 338
340 341 340 341 341 341 342 339 338 336 336 337 338 338 338 341 339 338 340 339 339 338 338 338 338 338 338 337 336 335 335 335 336 335 335 335 334 334 334 334 333 331 332 330 330 331 333 332 328 324 325 328 331 334 337 338 335 334 336 339 339 338
338 339 338 338 339 338 341 344 341 338 337 336 339 341 338 339 339 337 339 338 338 338 338 336 337 337 337 336 336 335 334 335 336 335 334 334 334 332 333 332 332 329 328 331 330 333 333 334 327 328 328 324 320 322 332 332 335 334 334 335 339 337
338 338 338 338 339 340 340 341 342 342 342 340 337 339 341 339 339 337 337 338 338 337 336 335 335 334 335 336 336 335 335 334 335 336 334 333 333 333 334 334 333 332 331 327 327 328 333 334 332 327 319 319 322 322 317 324 330 333 333 334 333 333
335 336 338 338 339 339 340 341 342 342 343 341 341 337 335 335 336 336 336 337 337 337 336 335 335 335 334 334 335 336 335 336 335 335 334 332 333 333 333 333 333 332 331 328 325 328 331 332 332 332 327 321 317 315 316 321 327 329 332 329 329 330
334 334 334 335 336 336 335 338 338 336 335 334 332 331 330 332 332 332 333 339 338 336 336 336 335 335 333 333 334 335 336 335 334 335 335 334 334 334 334 332 332 332 331 331 327 324 325 332 331 331 331 331 330 322 319 321 321 317 332 331 330 328
331 331 332 332 333 335 334 336 336 335 333 332 332 334 337 338 336 334 336 337 337 339 337 335 337 335 335 334 334 335 335 335 335 335 335 334 333 334 331 330 332 330 330 330 329 323 324 327 331 330 329 329 330 330 328 324 318 321 320 327 329 327
331 331 331 332 332 333 334 336 336 334 333 329 329 334 338 339 339 338 336 338 338 338 339 338 336 336 335 334 334 334 335 335 333 334 332 332 333 333 333 333 333 333 332 329 329 325 324 325 323 326 328 328 328 326 325 327 328 323 319 319 322 325
330 331 331 331 331 331 332 333 333 333 332 333 331 329 331 333 334 337 338 338 339 340 339 340 338 336 336 333 332 332 333 334 333 333 333 333 333 333 334 334 333 332 330 330 328 328 326 324 324 325 325 324 324 324 323 324 325 327 322 318 317 319
329 329 330 331 331 331 331 330 329 330 330 330 332 333 333 332 331 331 331 336 340 339 338 339 340 338 337 334 333 333 332 332 333 333 332 332 333 333 334 334 334 333 332 330 329 326 326 327 326 327 325 327 323 322 321 321 322 322 322 323 317 317
329 330 330 330 331 330 330 329 328 328 328 328 329 329 329 330 331 329 330 329 331 332 337 338 338 340 338 336 336 335 334 333 334 334 333 333 332 332 333 333 334 333 332 330 327 327 326 327 326 326 324 323 323 323 322 319 320 321 321 321 319 318
328 329 329 329 330 329 328 328 329 329 328 328 328 327 327 326 329 327 328 329 331 330 330 332 337 337 339 338 337 336 336 336 333 334 333 335 334 333 333 333 332 332 332 330 330 328 327 326 325 325 324 324 323 324 324 322 321 323 322 321 321 319
325 327 328 329 328 329 328 328 328 328 328 328 328 328 328 327 328 327 329 329 326 325 330 328 329 330 333 335 338 338 337 336 335 335 335 334 335 334 334 332 332 332 331 330 328 329 326 328 327 325 324 325 323 322 321 321 323 323 322 322 323 317
323 325 326 326 326 326 327 328 329 328 328 328 327 328 327 327 326 326 326 327 327 326 325 326 328 330 331 332 334 336 337 337 335 337 336 336 336 335 334 331 331 331 330 331 330 329 328 328 328 328 328 325 324 321 322 324 324 322 322 320 316 316
322 323 324 324 324 325 325 326 326 326 327 327 326 326 326 327 328 327 327 327 326 326 325 325 326 327 329 329 333 334 334 333 334 334 337 336 335 335 335 333 331 331 331 331 330 329 328 328 327 326 327 325 324 323 324 323 322 322 321 321 321 320
322 322 323 323 323 324 324 325 326 326 326 326 326 326 326 326 327 329 331 330 327 327 327 326 326 326 327 329 330 331 331 332 333 333 334 336 336 334 334 333 331 330 330 330 330 330 328 328 328 327 327 325 323 321 324 323 323 322 321 322 322 323
321 322 322 322 323 323 324 324 324 324 323 324 324 324 324 325 326 327 328 329 329 329 330 331 330 328 326 328 330 330 331 331 329 332 332 334 334 334 334 333 332 330 330 330 330 328 328 327 328 327 325 324 323 323 322 324 323 323 323 323 321 321
Wind_Speed
3 2 4 5 3 1 6 5 3 7 7 6 6 4 5 6 5 5 5 6 5 2 2 2 2 2 7 2 6 7 7 7 8 9 8 9 10 11 11 10 10 9 8 7 6 5 5 4 4 4 4 6 6 7 4 4 4 3 4 6 5 7
3 2 2 4 5 7 2 3 7 6 5 6 5 5 5 2 2 3 5 4 2 5 4 1 3 1 2 7 7 6 7 7 8 9 8 8 8 9 10 10 10 9 7 6 8 7 6 5 5 4 6 6 7 3 3 3 4 4 3 4 5 13
3 3 2 1 2 2 5 5 3 6 2 5 2 4 3 3 3 3 1 1 1 1 2 4 4 2 2 3 5 6 6 7 8 9 9 8 9 8 7 9 9 7 5 6 8 6 5 5 5 7 6 7 5 2 2 4 4 4 4 3 3 15
3 3 2 3 2 1 1 1 1 1 4 6 5 3 2 1 1 2 2 1 1 1 1 2 4 4 4 4 6 5 6 8 8 9 7 5 8 7 5 5 5 4 7 7 6 5 5 4 4 5 5 5 4 3 3 4 4 3 4 4 4 15
4 3 3 2 3 2 2 1 2 1 1 2 1 1 2 1 2 1 1 1 1 0 1 2 2 2 2 2 3 4 5 5 5 7 6 5 5 5 8 7 6 7 6 6 4 4 4 3 3 4 4 4 3 3 3 3 3 3 3 4 7 13
4 4 4 3 2 2 1 2 1 2 1 1 1 1 1 1 2 1 1 0 0 1 1 1 1 1 2 2 2 1 1 1 2 5 9 6 3 4 5 5 6 6 5 5 4 3 4 3 4 4 4 4 4 4 4 4 3 3 3 3 9 12
5 4 3 3 3 2 2 2 1 3 3 2 0 0 1 1 2 2 2 1 1 1 1 1 1 1 1 2 2 1 0 1 1 1 1 2 7 9 8 5 4 5 4 4 4 5 5 5 5 5 5 4 5 5 4 4 4 4 4 3 9 13
4 3 3 3 2 2 3 2 3 1 2 4 2 2 3 3 2 1 2 2 1 3 1 1 1 1 1 1 1 0 0 1 1 0 1 1 2 1 0 1 2 3 4 5 5 5 5 5 5 6 4 5 5 6 5 4 3 3 4 4 6 12
3 3 2 2 3 2 2 2 2 3 3 2 2 2 3 1 1 2 1 3 3 2 2 1 1 1 0 0 0 1 0 0 1 1 0 0 0 1 2 2 2 3 3 3 4 4 5 5 4 5 6 6 6 6 5 5 4 5 5 5 4 11
3 2 3 1 2 2 2 1 2 3 1 0 2 2 1 1 1 1 1 2 3 2 2 2 1 1 0 1 0 1 0 1 1 1 0 0 1 1 1 1 3 4 3 4 5 3 3 5 5 5 5 6 6 6 5 6 6 6 5 4 4 7
3 3 2 3 3 3 2 2 2 2 2 1 2 1 1 1 1 2 2 2 2 1 1 1 1 1 1 1 0 1 0 0 0 1 1 1 1 2 2 2 2 2 2 3 4 3 5 4 5 6 6 7 5 5 5 5 6 6 7 6 6 5
3 2 2 2 2 2 2 2 2 1 2 2 1 1 0 1 2 2 3 2 1 1 0 1 1 1 1 1 0 0 0 1 0 0 1 1 1 1 2 2 3 2 3 3 3 3 3 4 5 6 4 6 6 6 6 5 6 7 7 6 5 5
2 2 2 3 3 2 2 1 1 1 2 0 1 1 1 2 2 2 2 3 3 2 1 0 2 2 1 1 1 1 1 0 1 1 1 1 1 1 2 2 2 2 3 4 4 4 3 4 5 5 5 5 3 6 6 4 5 6 5 6 5 6
3 2 3 2 2 2 1 1 1 1 1 1 1 1 1 2 2 2 2 2 3 3 2 2 2 0 1 1 1 1 0 1 0 1 1 1 1 2 1 2 2 3 3 4 3 3 3 4 4 4 5 4 5 5 4 4 5 5 5 6 5 4
2 3 2 3 2 2 1 1 1 1 1 1 1 1 1 2 1 2 2 2 3 3 3 3 3 2 2 2 1 0 1 0 1 2 1 1 2 1 1 1 1 3 2 3 4 2 3 4 3 4 4 4 4 5 5 5 4 4 5 5 4 5
2 2 3 3 3 3 3 2 2 1 1 0 0 1 1 2 2 2 2 2 3 3 3 3 3 3 3 2 2 1 1 1 1 1 1 0 2 1 1 1 0 2 3 3 3 3 3 3 3 4 3 4 4 3 4 4 4 5 4 4 5 3
3 2 2 2 1 1 2 3 3 2 2 1 1 1 2 1 1 2 2 3 3 3 4 3 3 3 3 2 2 2 1 2 2 1 1 1 2 1 1 1 1 1 3 2 3 3 4 3 3 3 3 4 4 3 4 4 4 3 3 5 5 4
3 3 2 2 2 3 2 2 2 2 2 2 1 1 1 1 1 2 2 3 3 3 3 3 2 2 1 2 1 2 1 2 1 1 1 2 1 1 1 2 2 2 2 3 3 3 3 3 3 4 4 4 4 3 3 3 3 3 4 5 4 4
4 3 2 2 1 1 2 2 1 1 1 1 1 0 1 1 1 1 1 2 2 2 2 1 2 2 2 1 1 1 2 1 1 2 2 3 2 2 2 2 2 2 2 2 2 2 3 3 3 3 4 4 4 5 4 3 3 4 3 3 3 3
4 4 3 2 1 2 1 1 2 1 1 1 1 1 0 1 0 0 1 1 1 0 0 0 0 1 1 1 1 0 0 1 1 2 2 2 2 2 3 3 3 4 3 3 3 2 2 3 3 4 4 4 5 5 6 5 5 5 4 5 5 4
4 4 4 4 3 3 2 1 1 1 1 1 1 1 1 1 1 1 0 0 0 0 1 1 1 1 1 2 2 1 2 2 1 2 1 2 2 2 2 3 3 3 4 4 3 2 3 4 5 4 3 4 4 5 5 5 6 6 6 5 4 5
3 3 3 4 4 3 2 3 3 2 2 1 1 1 1 0 1 0 1 1 1 1 2 2 2 1 2 3 2 2 2 2 2 1 1 1 2 2 2 2 3 4 3 4 3 2 2 4 5 5 4 4 5 5 5 5 6 7 6 5 5 5
4 4 3 4 5 4 4 3 4 3 3 3 1 1 2 2 2 2 1 2 2 2 3 3 2 2 2 3 2 3 3 2 3 2 2 2 3 3 3 3 4 4 3 2 3 1 2 3 4 3 3 4 5 5 5 5 5 5 5 4 3 5
4 3 4 3 4 6 5 5 5 5 4 4 3 2 2 2 3 3 3 3 3 2 2 3 3 3 3 3 3 3 3 3 2 2 3 4 4 4 4 4 4 4 4 5 4 2 0 3 4 4 4 3 2 3 5 6 5 5 5 5 6 6
7 7 6 7 7 7 5 5 4 5 5 5 4 4 3 3 2 2 3 3 3 3 3 4 3 4 4 4 4 4 4 4 4 3 3 4 5 4 4 4 4 4 4 4 4 2 2 3 4 4 5 4 5 6 4 1 3 3 4 5 4 5
7 8 9 10 11 8 6 5 4 4 4 5 5 4 4 3 3 3 3 2 4 4 4 4 4 4 5 5 5 5 5 5 5 4 4 4 4 4 3 4 4 4 4 4 4 4 4 3 3 4 5 5 5 5 4 1 3 4 4 4 3 2
7 6 7 7 7 8 8 6 6 7 8 8 5 3 2 3 4 4 3 4 4 4 5 5 5 4 5 5 5 6 6 6 5 5 5 5 4 4 5 6 4 4 4 3 3 5 5 3 3 5 4 4 6 6 5 5 5 3 3 3 3 1
8 8 7 7 8 7 8 7 7 6 4 6 11 9 4 4 4 5 5 5 4 4 4 4 5 6 5 6 6 6 6 6 6 5 5 5 5 5 5 3 3 4 3 3 4 5 4 4 4 3 3 4 5 5 6 6 7 6 5 4 5 4
9 8 8 10 8 8 7 7 8 8 7 4 3 7 8 8 9 8 5 5 5 3 3 4 5 6 6 6 6 6 6 6 6 6 6 6 5 5 6 5 5 5 5 4 3 4 4 4 4 4 4 5 5 5 5 6 6 6 6 6 5 5
10 8 8 8 8 9 9 8 7 7 9 8 7 6 5 4 4 8 12 10 4 3 3 3 4 5 6 7 7 7 7 7 7 6 6 6 5 6 6 6 6 6 5 5 3 4 5 3 4 3 4 3 4 4 5 5 5 6 6 7 6 6
9 7 8 8 9 9 8 8 7 8 9 9 10 9 8 6 5 6 5 8 10 8 6 4 4 4 5 7 7 7 7 7 6 6 6 7 6 6 6 6 6 7 6 6 4 4 4 4 4 4 5 4 5 5 4 5 4 5 5 5 5 7
9 9 8 8 8 8 7 7 8 8 8 8 9 8 9 9 8 8 7 6 5 6 8 9 5 4 4 5 6 6 8 8 8 7 7 7 6 6 6 6 6 6 6 7 6 5 5 5 5 4 5 3 4 4 3 5 4 4 4 4 5 6
10 10 9 9 8 8 8 8 8 8 8 7 8 8 8 8 7 7 7 7 7 7 5 8 7 7 7 9 7 7 8 8 8 7 8 8 7 7 6 6 6 7 7 7 7 7 5 6 6 5 4 4 4 4 4 4 3 3 3 3 4 5
9 9 9 9 9 8 8 8 7 7 7 7 7 7 7 7 7 7 6 7 7 7 8 9 9 7 7 7 9 7 7 8 10 10 9 9 9 8 8 7 7 8 8 7 7 8 7 6 6 6 4 4 4 4 4 3 3 3 4 4 5 5
9 9 9 9 8 9 8 8 8 7 7 7 6 6 6 6 6 7 6 7 7 6 6 7 8 8 8 10 10 9 9 8 9 11 10 9 9 9 8 8 8 8 8 7 7 7 7 7 7 7 6 5 4 4 4 4 4 4 4 4 4 4
8 9 9 9 9 8 8 8 9 9 8 8 7 7 6 6 7 7 7 7 7 7 7 7 7 7 9 10 10 10 11 10 10 10 11 11 11 10 9 9 9 8 9 7 8 9 8 8 8 8 7 6 5 5 4 4 4 4 4 3 4 3
8 8 9 9 8 8 8 8 8 9 9 9 8 9 8 9 9 8 7 7 6 7 7 6 6 6 7 9 9 10 10 12 12 10 12 12 11 11 10 10 10 10 10 9 8 9 8 8 8 8 7 8 6 5 4 4 4 3 4 3 4 4
Wind_Direction
63 58 101 84 41 11 138 153 123 122 123 114 112 105 106 112 120 111 132 131 161 162 124 142 155 225 141 117 129 137 145 152 153 147 146 146 150 152 153 149 149 150 151 141 152 153 160 176 185 210 203 207 207 218 200 206 204 180 186 140 194 124
109 70 27 148 169 152 140 245 161 155 141 120 119 153 161 98 117 120 142 174 200 147 184 163 285 81 249 164 139 132 147 154 153 155 144 145 146 152 154 149 146 147 155 172 177 192 170 167 190 195 206 218 228 212 188 188 203 200 172 152 197 118
46 60 65 15 40 70 149 199 153 109 109 84 168 230 133 182 159 161 115 90 229 136 211 171 150 121 87 53 112 138 143 154 154 154 147 130 132 134 146 155 152 154 170 205 207 213 198 178 170 176 207 220 218 209 172 175 188 207 195 143 181 127
63 45 4 30 19 37 38 27 131 130 140 154 191 161 152 178 105 43 108 56 56 4 63 89 110 135 179 158 129 136 140 142 141 143 142 155 144 127 125 124 146 173 208 206 212 200 208 189 192 199 199 216 210 168 197 181 188 190 216 161 144 137
41 44 28 42 8 18 17 359 15 64 79 70 105 156 132 137 86 94 68 136 91 291 254 112 191 179 235 162 139 173 159 154 208 135 189 187 198 163 194 180 176 202 214 219 220 223 231 195 216 218 221 210 230 189 203 193 183 195 197 176 121 145
54 35 21 22 28 61 311 9 22 37 350 67 76 33 40 99 112 26 329 26 357 179 262 228 155 224 188 196 202 157 226 113 152 133 177 197 205 244 213 200 211 201 207 224 219 223 223 229 212 227 235 213 212 229 222 200 176 204 189 186 135 151
41 43 45 15 11 17 42 26 352 31 321 87 64 137 87 31 44 9 335 352 288 240 248 268 199 204 227 215 180 204 155 178 171 183 176 154 152 192 221 206 205 231 217 231 226 213 210 216 239 220 220 227 234 215 239 231 184 189 197 189 140 158
64 51 40 44 45 39 45 45 55 146 239 38 328 25 41 32 347 3 349 326 353 314 335 287 267 221 205 237 181 137 138 192 214 276 84 258 163 167 166 331 219 244 241 230 225 229 230 213 202 249 231 224 220 245 222 244 232 200 187 193 158 163
71 70 58 64 68 52 50 47 35 44 4 4 28 357 28 24 328 16 14 335 352 350 332 294 288 260 241 346 54 228 182 94 292 45 132 133 325 158 173 200 222 235 235 245 237 238 243 247 217 222 237 232 228 230 226 236 237 233 208 190 202 160
56 52 58 38 63 62 43 49 59 63 358 339 30 20 331 23 24 319 61 19 356 2 347 327 358 301 273 58 215 100 323 36 35 1 265 105 354 305 284 212 214 219 237 242 246 231 252 236 233 233 231 240 223 238 223 236 226 228 241 203 195 162
52 43 31 31 38 54 33 32 37 32 32 25 21 317 345 21 23 54 33 17 352 32 347 38 321 309 280 206 187 277 265 17 336 26 301 59 11 318 306 293 279 298 254 255 242 240 249 254 243 230 218 241 242 245 243 234 245 234 232 222 202 184
43 47 14 37 48 47 42 51 51 35 51 26 325 308 21 24 34 37 22 358 360 353 297 129 147 228 279 261 221 301 299 266 92 216 317 346 246 254 275 308 317 293 296 283 273 249 235 243 249 260 250 217 228 236 242 241 243 246 242 236 224 211
64 43 32 38 30 43 36 79 78 60 72 26 282 351 13 43 44 41 27 1 345 351 319 208 167 175 189 215 169 235 239 17 309 345 330 5 288 232 238 242 219 267 275 262 257 250 250 254 249 244 256 272 244 233 242 242 248 257 257 252 240 233
44 47 14 26 22 23 35 46 72 77 89 250 27 350 27 32 45 68 59 34 349 1 349 349 333 289 243 191 177 195 198 167 297 303 225 241 240 264 253 265 280 252 237 258 250 249 240 243 254 251 244 247 259 265 264 246 246 250 253 260 256 253
64 41 5 26 5 17 27 354 62 89 74 330 46 24 38 46 48 46 55 70 26 23 8 359 347 346 334 314 246 215 260 308 298 266 261 138 279 250 254 247 249 257 247 249 256 247 264 254 246 261 272 263 246 244 248 258 262 263 242 239 253 247
70 51 33 19 12 358 1 355 354 35 66 37 9 58 48 52 32 35 66 62 54 31 25 18 4 352 331 335 333 337 335 11 348 309 344 29 264 253 258 273 293 277 259 248 250 249 238 246 249 254 261 269 269 259 249 242 244 256 283 274 239 235
70 54 45 48 17 14 338 341 342 350 356 325 329 61 75 60 58 52 38 47 52 32 31 23 11 359 342 336 334 343 357 344 333 346 3 265 232 250 231 215 189 251 280 270 247 254 252 244 247 241 242 257 258 242 250 252 248 248 267 271 274 242
66 58 32 16 11 327 1 316 318 341 349 335 359 1 37 20 52 43 50 58 50 36 38 27 352 354 335 322 3 2 345 318 307 282 249 248 269 255 257 246 210 197 248 262 251 239 240 243 248 245 232 226 241 251 248 243 242 247 250 253 271 271
50 43 40 16 333 306 311 280 265 273 284 298 286 70 336 327 39 31 66 70 61 48 41 15 356 345 332 337 30 23 332 356 273 275 267 270 246 252 260 257 260 207 217 256 289 297 295 294 266 256 257 229 226 229 236 225 236 234 224 242 249 254
26 14 357 354 331 316 336 332 331 303 253 290 311 259 295 307 265 66 81 36 68 95 62 253 256 356 301 334 301 299 51 252 277 275 297 298 307 309 317 299 293 287 257 234 240 263 263 272 262 245 235 248 243 244 225 205 214 224 216 217 229 236
18 10 357 348 345 332 331 319 278 292 301 237 263 298 220 257 311 64 337 4 113 234 199 235 251 241 248 248 260 210 231 239 252 289 328 353 350 342 332 314 309 290 285 275 243 253 281 284 275 250 217 236 227 233 243 231 228 218 213 218 223 232
11 6 359 341 320 304 311 323 312 310 310 304 284 259 279 183 280 83 221 198 210 202 199 213 204 207 250 269 254 240 242 244 266 274 313 357 307 304 279 278 289 275 252 288 279 303 321 299 249 256 253 220 222 207 219 225 242 235 225 207 213 228
1 348 343 327 318 315 312 298 291 305 289 293 234 312 316 317 304 292 257 236 225 209 216 234 231 231 227 230 258 274 262 266 267 278 254 229 226 236 263 272 259 277 285 239 289 200 303 323 300 292 256 266 241 232 189 219 227 241 231 236 217 225
333 323 310 313 304 305 302 302 289 290 286 281 299 248 240 257 261 256 255 246 259 243 239 271 261 239 235 234 245 244 253 250 249 251 263 255 248 243 224 239 241 247 260 280 242 219 228 303 304 303 250 254 306 269 244 219 215 209 235 217 229 235
332 339 336 337 324 313 302 278 258 255 259 259 246 245 237 240 242 261 269 260 259 256 267 265 269 268 272 257 243 249 248 249 244 236 248 254 246 242 238 239 251 264 259 278 278 264 224 247 269 286 295 269 227 224 237 216 206 212 239 232 229 244
344 347 353 353 344 327 316 302 293 274 252 237 246 238 247 249 249 255 269 289 268 268 276 274 273 277 279 271 256 252 257 258 248 239 236 252 255 241 243 257 232 244 241 233 271 275 252 187 250 262 270 286 303 308 322 341 248 213 191 249 233 247
11 0 356 345 334 329 322 318 307 305 310 302 281 253 251 258 266 273 264 265 279 282 272 267 264 265 261 261 263 256 249 255 259 246 240 248 246 241 236 229 217 230 254 249 241 263 259 238 190 230 231 254 275 269 273 280 261 297 216 170 255 239
22 19 14 3 356 359 334 337 334 321 298 295 305 313 302 280 267 263 266 264 274 258 254 260 265 265 269 263 251 253 250 247 253 254 245 238 242 236 241 236 228 253 256 264 257 261 257 241 239 200 197 228 225 248 254 258 267 268 282 239 190 204
28 26 25 19 12 13 4 351 344 339 334 331 275 266 303 319 317 304 285 280 277 268 257 248 255 264 266 270 260 249 249 245 245 252 243 242 240 236 229 235 216 228 235 241 245 250 257 241 231 228 194 219 234 238 230 228 258 265 254 257 240 207
29 29 26 23 19 19 12 357 350 344 335 329 331 331 336 336 313 312 311 309 286 279 280 244 238 251 262 269 263 256 248 242 243 245 251 256 239 231 223 222 219 225 227 238 232 230 237 247 236 253 234 229 216 221 250 247 230 244 255 263 268 246
31 29 25 24 22 24 26 19 11 355 341 329 326 325 323 328 335 310 310 304 318 313 308 306 288 268 261 269 264 260 259 259 244 241 246 250 243 234 223 220 217 217 221 225 224 222 229 236 239 225 234 227 237 226 236 236 233 240 259 263 257 264
28 25 25 25 24 23 22 18 14 9 3 351 345 337 329 326 328 320 317 313 303 295 304 298 305 284 275 270 268 265 259 255 254 245 243 246 246 236 231 221 219 215 217 215 221 217 219 218 226 222 219 234 244 271 248 249 245 253 258 262 268 270
28 19 20 21 21 20 18 15 9 6 4 357 354 347 342 339 336 330 329 325 317 309 298 278 297 306 306 303 285 264 265 258 251 243 240 251 247 242 240 233 229 221 222 213 212 215 215 216 216 231 217 218 244 230 234 234 255 244 238 260 271 267
29 23 20 19 18 16 18 12 8 6 359 354 351 344 341 334 337 327 323 316 315 317 317 306 305 305 300 286 284 291 284 287 277 261 246 243 247 247 237 234 231 229 227 220 219 213 223 216 215 227 245 242 222 233 233 240 225 237 230 224 232 242
29 29 25 21 21 18 14 15 14 9 4 358 351 344 338 336 328 323 314 311 308 307 299 307 310 305 299 287 287 287 284 273 264 270 261 248 245 243 236 233 237 229 229 226 221 216 221 216 213 215 220 240 242 234 227 216 219 228 232 233 235 231
28 27 26 24 26 23 20 20 16 17 12 6 358 348 345 340 333 321 314 311 310 306 304 302 297 293 298 295 288 281 278 268 265 264 264 252 243 240 236 233 236 233 227 223 222 218 220 216 217 216 216 221 236 231 207 222 216 212 240 230 235 244
22 23 21 22 21 20 20 20 20 14 10 6 1 356 349 342 338 331 320 312 303 300 296 284 287 291 290 289 291 288 279 274 267 257 255 257 251 243 239 234 235 234 232 227 222 221 218 218 212 212 213 210 218 224 208 212 230 199 215 226 231 227